Location: Warwick
(41.7000°N, 71.4170°W)
Time: 04:39:57
(UTC-04:00)

BREEZE-M DEB (TANK) - Visible Passes

Search period start: 25 May 2017 00:00
Search period end: 04 June 2017 00:00
Orbit: 321 x 15832 km, 49.5° (Epoch: 24 May)

Date Brightness Start Highest point End Pass type
(mag) Time Alt. Az. Time Alt. Az. Time Alt. Az.
25 May 6.1 04:04:55 11° SW 05:07:36 81° NNW 05:16:49 10° ENE visible
25 May 8.0 23:17:26 22° SE 23:51:15 30° ESE 00:15:48 10° ENE visible
26 May 6.1 04:05:32 10° SW 05:09:13 79° NNW 05:18:15 10° ENE visible
26 May 8.0 23:17:48 23° SSE 23:53:01 31° ESE 00:17:41 10° ENE visible
27 May 6.1 04:08:12 10° WSW 05:10:48 77° NNW 05:19:42 10° ENE visible
27 May 8.0 23:17:48 24° SSE 23:54:47 33° ESE 00:19:32 10° ENE visible
28 May 6.1 04:11:32 10° WSW 05:12:25 75° NNW 05:21:09 10° ENE visible
28 May 8.0 23:17:17 25° SSE 23:56:35 35° ESE 00:21:20 10° ENE visible
29 May 6.0 04:14:57 10° WSW 05:14:01 73° NNW 05:22:37 10° ENE visible
29 May 8.0 22:28:51 10° SSE 23:58:22 37° ESE 00:23:06 10° ENE visible
30 May 6.0 04:18:26 10° WSW 05:15:38 72° NNW 05:24:04 10° ENE visible
30 May 7.9 22:27:40 10° SSE 00:00:10 39° SE 00:24:50 10° ENE visible
31 May 6.0 04:21:57 10° WSW 05:17:15 70° NNW 05:25:30 10° ENE visible
31 May 7.9 22:26:38 10° SSE 00:01:59 41° SE 00:26:32 10° ENE visible
01 Jun 6.0 04:25:30 10° WSW 05:18:52 69° NNW 05:26:58 10° ENE visible
01 Jun 7.9 22:25:46 10° S 00:03:48 43° SE 00:28:13 10° ENE visible
02 Jun 6.0 04:29:04 10° WSW 05:20:30 67° NNW 05:28:26 10° ENE visible
02 Jun 7.9 22:25:04 10° S 00:05:37 44° SE 00:29:52 10° ENE visible
03 Jun 5.9 04:32:39 10° WSW 05:22:07 66° NNW 05:29:54 10° ENE visible
